Tracking 29042 objects as of 22-Jun-2024
HD Live streaming from Space Station
objects crossing your sky now

GEO IK

Track GEO IK now!
10-day predictions
GEO IK is classified as:


NORAD ID: 23411
Int'l Code: 1994-078A
Perigee: 1,487.1 km
Apogee: 1,533.2 km
Inclination: 73.6 °
Period: 116.0 minutes
Semi major axis: 7881 km
RCS: 11.135 m2 (large)
Launch date: November 29, 1994
Source: Commonwealth of Independent States (former USSR) (CIS)
Launch site: PLESETSK MISSILE AND SPACE COMPLEX (PKMTR)
Your satellite tracking list
Your tracking list is empty




NASA's NSSDC Master Catalog

Two Line Element Set (TLE):
1 23411U 94078A   24173.16642461 -.00000003  00000-0  10610-3 0  9991
2 23411  73.6151  58.0000 0029191 310.6581 164.2729 12.40847589339009
Source of the keplerian elements: AFSPC